Location: Piotrkow Trybunalski
(51.4000°N, 19.6830°E)
Time: 16:02:33
(UTC+01:00)

Vanguard 2 - Pass Details

Date: 11 February 2023
Orbit: 553 x 2927 km, 32.9° (Epoch: 24 March)

Event Time Altitude Azimuth Distance (km) Brightness Sun altitude
Rises 17:46:40 0° 191° (S) 4,100 11.6 -9.5°
Reaches altitude 10° 17:51:05 10° 166° (SSE) 3,601 10.9 -10.2°
Maximum altitude 17:55:21 14° 139° (SE) 3,727 10.7 -10.8°
Drops below altitude 10° 18:00:28 10° 113° (ESE) 4,505 10.9 -11.6°
Enters shadow 18:01:52 - 108° (ESE) 4,789 11.0 -11.8°
Sets 18:07:30 0° 93° (E) 6,059 - -12.7°
